When you browse on this site, cookies collect data to enhance your experience and personalize the content and advertising you see.
Visit our Privacy Policy to learn more. By continuing to use the site, you agree to this use of cookies and data.

Hourly Weather La Valette-du-Var

Today, 9 August, Sunday

Time Temperature Precipitation Wind Pressure Humidity
00:00 +25°C° 0 mm 1 mps 754 mmHg 51%
01:00 +25°C° 0 mm 1 mps 754 mmHg 49%
02:00 +25°C° 0 mm 1 mps 754 mmHg 47%
03:00 +25°C° 0 mm 1 mps 753 mmHg 45%
04:00 +26°C° 0 mm 1 mps 753 mmHg 44%
05:00 +27°C° 0 mm 1 mps 754 mmHg 43%
06:00 +28°C° 0 mm 1 mps 754 mmHg 42%
07:00 +30°C° 0 mm 1 mps 754 mmHg 37%
08:00 +33°C° 0 mm 1 mps 754 mmHg 33%
09:00 +35°C° 0 mm 1 mps 754 mmHg 28%
10:00 +36°C° 0 mm 2 mps 754 mmHg 27%
11:00 +37°C° 0 mm 2 mps 753 mmHg 26%
12:00 +38°C° 0 mm 2 mps 753 mmHg 25%
13:00 +37°C° 0 mm 3 mps 753 mmHg 26%
14:00 +37°C° 0 mm 3 mps 752 mmHg 27%
15:00 +36°C° 0 mm 4 mps 752 mmHg 27%
16:00 +35°C° 0 mm 3 mps 752 mmHg 30%
17:00 +34°C° 0 mm 3 mps 752 mmHg 33%
18:00 +31°C° 0 mm 2 mps 752 mmHg 36%
19:00 +30°C° 0 mm 3 mps 752 mmHg 39%
20:00 +28°C° 0 mm 3 mps 752 mmHg 42%
21:00 +27°C° 0 mm 3 mps 753 mmHg 46%
22:00 +26°C° 0 mm 3 mps 752 mmHg 48%
23:00 +26°C° 0 mm 2 mps 752 mmHg 49%

Tomorrow, 10 August, Monday

Time Temperature Precipitation Wind Pressure Humidity
00:00 +26°C° 0 mm 1 mps 751 mmHg 51%
01:00 +25°C° 0 mm 2 mps 751 mmHg 52%
02:00 +25°C° 0 mm 2 mps 751 mmHg 54%
03:00 +25°C° 0 mm 2 mps 751 mmHg 55%
04:00 +25°C° 0 mm 2 mps 751 mmHg 55%
05:00 +26°C° 0 mm 2 mps 751 mmHg 54%
06:00 +26°C° 0 mm 1 mps 751 mmHg 53%
07:00 +29°C° 0 mm 1 mps 752 mmHg 46%
08:00 +32°C° 0 mm 1 mps 752 mmHg 39%
09:00 +34°C° 0 mm 1 mps 752 mmHg 32%
10:00 +36°C° 0 mm 2 mps 752 mmHg 33%
11:00 +36°C° 0 mm 3 mps 752 mmHg 34%
12:00 +36°C° 0 mm 4 mps 752 mmHg 35%
13:00 +36°C° 0 mm 4 mps 752 mmHg 36%
14:00 +35°C° 0 mm 4 mps 752 mmHg 38%
15:00 +35°C° 0 mm 3 mps 752 mmHg 39%
16:00 +33°C° 0 mm 3 mps 752 mmHg 44%
17:00 +31°C° 0 mm 2 mps 752 mmHg 49%
18:00 +30°C° 0 mm 1 mps 752 mmHg 54%
19:00 +28°C° 0 mm 1 mps 752 mmHg 58%
20:00 +27°C° 0 mm 1 mps 752 mmHg 62%
21:00 +26°C° 0 mm 1 mps 752 mmHg 66%
22:00 +26°C° 0 mm 1 mps 752 mmHg 67%
23:00 +25°C° 0 mm 2 mps 752 mmHg 69%

Day after tomorrow, 11 August, Tuesday

Time Temperature Precipitation Wind Pressure Humidity
00:00 +25°C° 0 mm 2 mps 752 mmHg 70%
01:00 +24°C° 0 mm 2 mps 752 mmHg 70%
02:00 +24°C° 0 mm 2 mps 752 mmHg 70%
03:00 +24°C° 0 mm 1 mps 752 mmHg 70%
04:00 +25°C° 0 mm 1 mps 752 mmHg 67%
05:00 +26°C° 0 mm 1 mps 752 mmHg 63%
06:00 +26°C° 0 mm 1 mps 752 mmHg 59%
07:00 +29°C° 0 mm 2 mps 752 mmHg 51%
08:00 +32°C° 0 mm 2 mps 752 mmHg 42%
09:00 +35°C° 0 mm 2 mps 753 mmHg 34%
10:00 +36°C° 0 mm 2 mps 753 mmHg 34%
11:00 +36°C° 0 mm 3 mps 753 mmHg 34%
12:00 +36°C° 0 mm 4 mps 753 mmHg 34%
13:00 +36°C° 0 mm 4 mps 753 mmHg 35%
14:00 +36°C° 0 mm 4 mps 752 mmHg 35%
15:00 +35°C° 0 mm 4 mps 752 mmHg 36%
16:00 +34°C° 0 mm 3 mps 752 mmHg 39%
17:00 +33°C° 0 mm 3 mps 752 mmHg 42%
18:00 +30°C° 0 mm 3 mps 751 mmHg 45%
19:00 +29°C° 0 mm 2 mps 752 mmHg 48%
20:00 +27°C° 0 mm 2 mps 752 mmHg 52%
21:00 +26°C° 0 mm 2 mps 752 mmHg 55%
22:00 +26°C° 0 mm 2 mps 752 mmHg 55%
23:00 +25°C° 0 mm 2 mps 752 mmHg 56%

12 August, Wednesday

Time Temperature Precipitation Wind Pressure Humidity
00:00 +25°C° 0 mm 2 mps 752 mmHg 56%
01:00 +25°C° 0 mm 1 mps 752 mmHg 56%
02:00 +24°C° 0 mm 1 mps 751 mmHg 57%
03:00 +24°C° 0 mm 1 mps 751 mmHg 57%
04:00 +25°C° 0 mm 1 mps 751 mmHg 55%
05:00 +26°C° 0 mm 1 mps 751 mmHg 53%
06:00 +27°C° 0 mm 1 mps 751 mmHg 51%
07:00 +29°C° 0 mm 1 mps 752 mmHg 44%
08:00 +31°C° 0 mm 1 mps 752 mmHg 38%
09:00 +34°C° 0 mm 1 mps 752 mmHg 31%
10:00 +35°C° 0 mm 2 mps 752 mmHg 29%
11:00 +36°C° 0 mm 2 mps 752 mmHg 28%
12:00 +37°C° 0 mm 3 mps 752 mmHg 26%
13:00 +37°C° 0 mm 3 mps 752 mmHg 26%
14:00 +37°C° 0 mm 3 mps 752 mmHg 26%
15:00 +37°C° 0 mm 4 mps 752 mmHg 25%
16:00 +35°C° 0 mm 3 mps 751 mmHg 30%
17:00 +33°C° 0 mm 3 mps 751 mmHg 35%
18:00 +31°C° 0 mm 3 mps 751 mmHg 39%
19:00 +29°C° 0 mm 2 mps 751 mmHg 44%
20:00 +27°C° 0 mm 2 mps 751 mmHg 48%
21:00 +26°C° 0 mm 1 mps 751 mmHg 52%
22:00 +26°C° 0 mm 1 mps 751 mmHg 51%
23:00 +26°C° 0 mm 1 mps 751 mmHg 50%

13 August, Thursday

Time Temperature Precipitation Wind Pressure Humidity
00:00 +25°C° 0 mm 1 mps 752 mmHg 49%
01:00 +25°C° 0 mm 1 mps 751 mmHg 50%
02:00 +25°C° 0 mm 1 mps 751 mmHg 51%
03:00 +25°C° 0 mm 1 mps 751 mmHg 51%
04:00 +25°C° 0 mm 1 mps 751 mmHg 49%
05:00 +26°C° 0 mm 1 mps 751 mmHg 47%
06:00 +27°C° 0 mm 1 mps 751 mmHg 45%
07:00 +28°C° 0 mm 2 mps 751 mmHg 42%
08:00 +30°C° 0 mm 3 mps 751 mmHg 39%
09:00 +31°C° 0 mm 3 mps 751 mmHg 36%
10:00 +33°C° 0 mm 3 mps 751 mmHg 36%
11:00 +34°C° 0 mm 3 mps 751 mmHg 36%
12:00 +34°C° 0 mm 3 mps 751 mmHg 36%
13:00 +34°C° 0 mm 3 mps 750 mmHg 35%
14:00 +34°C° 0 mm 3 mps 750 mmHg 35%
15:00 +34°C° 0 mm 3 mps 750 mmHg 35%
16:00 +31°C° 0 mm 3 mps 749 mmHg 40%
17:00 +30°C° 0 mm 2 mps 749 mmHg 45%
18:00 +28°C° 0 mm 2 mps 749 mmHg 51%
19:00 +27°C° 0 mm 2 mps 750 mmHg 58%
20:00 +25°C° 0 mm 2 mps 750 mmHg 64%
21:00 +24°C° 0 mm 2 mps 750 mmHg 71%
22:00 +24°C° 0 mm 2 mps 750 mmHg 72%
23:00 +22°C° 0 mm 3 mps 750 mmHg 73%

14 August, Friday

Time Temperature Precipitation Wind Pressure Humidity
00:00 +22°C° 0 mm 3 mps 750 mmHg 74%
01:00 +22°C° 0 mm 4 mps 750 mmHg 76%
02:00 +22°C° 0 mm 5 mps 750 mmHg 78%
03:00 +21°C° 0 mm 5 mps 750 mmHg 80%
04:00 +22°C° 0 mm 5 mps 750 mmHg 77%
05:00 +22°C° 0 mm 6 mps 750 mmHg 73%
06:00 +22°C° 0 mm 6 mps 750 mmHg 70%
07:00 +26°C° 0 mm 6 mps 750 mmHg 59%
08:00 +28°C° 0 mm 7 mps 750 mmHg 49%
09:00 +31°C° 0 mm 8 mps 750 mmHg 38%
10:00 +32°C° 0 mm 8 mps 750 mmHg 34%
11:00 +33°C° 0 mm 9 mps 750 mmHg 30%
12:00 +34°C° 0 mm 9 mps 750 mmHg 26%
13:00 +34°C° 0 mm 9 mps 750 mmHg 25%
14:00 +34°C° 0 mm 9 mps 749 mmHg 25%
15:00 +33°C° 0 mm 9 mps 749 mmHg 24%
16:00 +32°C° 0 mm 9 mps 749 mmHg 25%
17:00 +31°C° 0 mm 9 mps 749 mmHg 26%
18:00 +29°C° 0 mm 9 mps 749 mmHg 27%
19:00 +28°C° 0 mm 8 mps 749 mmHg 29%
20:00 +27°C° 0 mm 8 mps 750 mmHg 31%
21:00 +26°C° 0 mm 7 mps 750 mmHg 33%
22:00 +24°C° 0 mm 7 mps 750 mmHg 36%
23:00 +23°C° 0 mm 7 mps 750 mmHg 40%
Show more